Probability
0 0 0 0 0 0 0 0 0 0 0 0 0 0 0 0 0 0 0 0 0 0 0 0 0 0 0 0 0 0 0 0 0 0 0 0 0 0 0 0 0 0 0 0
0 0 0 0 0 0 0 0 0 0 0 0 0 0 0 0 0 0 0 0 0 0 0 0 0 0 0 0 0 0 0 0 0 0 0 0 0 0 0 0 0 0 0 0
0 0 0 0 0 0 0 0 0 0 0 0 0 0 0 0 0 0 0 0 0 0 0 0 0 0 0 0 0 0 0 0 0 0 0 0 0 0 0 0 0 0 0 0
0 0 0 0 0 0 0 0 0 0 0 0 0 0 0 0 0 0 0 0 0 0 0 0 0 0 0 0 0 0 0 0 0 0 0 0 0 0 0 0 0 0 0 0
0 0 0 0 0 0 0 0 0 0 0 0 0 0 0 0 0 0 0 0 0 0 0 0 0 0 0 0 0 0 0 0 0 0 0 0 0 0 0 0 0 0 0 0
0 0 0 0 0 0 0 0 0 0 0 0 0 0 0 0 0 0 0 0 0 0 0 0 0 0 0 0 0 0 0 0 0 0 0 0 0 0 0 0 0 0 0 0
0 0 0 0 0 0 0 0 0 0 0 0 0 0 0 0 0 0 0 0 0 0 0 0 0 0 0 0 0 0 0 0 0 0 0 0 0 0 0 0 0 0 0 0
0 0 0 0 0 0 0 0 0 0 0 0 0 0 0 0 0 0 0 0 0 0 0 0 0 0 0 0 0 0 0 0 0 0 0 0 0 0 0 0 0 0 0 0
0 0 0 0 0 0 0 0 0 0 0 0 0 0 0 0 0 0 0 0 0 0 0 0 0 0 0 0 0 0 0 0 0 0 0 0 0 0 0 0 0 0 0 0
0 0 0 0 0 0 0 0 0 0 0 0 0 0 0 0 0 0 0 0 0 0 0 0 0 0 0 0 0 0 0 0 0 0 0 0 0 0 0 0 0 0 0 0
0 0 0 0 0 0 0 0 0 0 0 0 0 0 0 0 0 0 0 0 0 0 0 0 0 0 0 0 0 0 0 0 0 0 0 0 0 0 0 0 0 0 0 0
0 0 0 0 0 0 0 0 0 0 0 0 0 0 0 0 0 0 0 0 0 0 0 0 0 0 0 0 0 0 0 0 0 0 0 0 0 0 0 0 0 0 0 0
0 0 0 0 0 0 0 0 0 0 0 0 0 0 0 0 0 0 0 0 0 0 0 0 0 0 0 0 0 0 0 0 0 0 0 0 0 0 0 0 0 0 0 0
0 0 0 0 0 0 0 0 0 0 0 0 0 0 0 0 0 0 0 0 0 0 0 0 0 0 0 0 0 0 0 0 0 0 0 0 0 0 0 0 0 0 0 0
0 0 0 0 0 0 0 0 0 0 0 0 0 0 0 0 0 0 0 0 0 0 0 0 0 0 0 0 0 0 0 0 0 0 0 0 0 0 0 0 0 0 0 0
0 0 0 0 0 0 0 0 0 0 0 0 0 0 0 0 0 0 0 0 0 0 0 0 0 0 0 0 0 0 0 0 0 0 0 0 0 0 0 0 0 0 0 0
0 0 0 0 0 0 0 0 0 0 0 0 0 0 0 0 0 0 0 0 0 0 0 0 0 0 0 0 0 0 0 0 0 0 0 0 0 0 0 0 0 0 0 0
0 0 0 0 0 0 0 0 0 0 0 0 0 0 0 0 0 0 0 0 0 0 0 0 0 0 0 0 0 0 0 0 0 0 0 0 0 0 0 0 0 0 0 0
0 0 0 0 0 0 0 0 0 0 0 0 0 0 0 0 0 0 0 0 0 0 0 0 0 0 0 0 0 0 0 0 0 0 0 0 0 0 0 0 0 0 0 0
0 0 0 0 0 0 0 0 0 0 0 0 0 0 0 0 0 0 0 0 0 0 0 0 0 0 0 0 0 0 0 0 0 0 0 0 0 0 0 0 0 0 0 0
0 0 0 0 0 0 0 0 0 0 0 0 0 0 0 0 0 0 0 0 0 0 0 0 0 0 0 0 0 0 0 0 0 0 0 0 0 0 0 0 0 0 0 0
0 0 0 0 0 0 0 0 0 0 0 0 0 0 0 0 0 0 0 0 0 0 0 0 0 0 0 0 0 0 0 0 0 0 0 0 0 0 0 0 0 0 0 0
0 0 0 0 0 0 0 0 0 0 0 0 0 0 0 0 0 0 0 0 0 0 0 0 0 0 0 0 0 0 0 0 0 0 0 0 0 0 0 0 0 0 0 0
0 0 0 0 0 0 0 0 0 0 0 0 0 0 0 0 0 0 0 0 0 0 0 0 0 0 0 0 0 0 0 0 0 0 0 0 0 0 0 0 0 0 0 0
0 0 0 0 0 0 0 0 0 0 0 0 0 0 0 0 0 0 0 0 0 0 0 0 0 0 0 0 0 0 0 0 0 0 0 0 0 0 0 0 0 0 0 0
0 0 0 0 0 0 0 0 0 0 0 0 0 0 0 0 0 0 0 0 0 0 0 0 0 0 0 0 0 0 0 0 0 0 0 0 0 0 0 0 0 0 0 0
0 0 0 0 0 0 0 0 0 0 0 0 0 0 0 0 0 0 0 0 0 0 0 0 0 0 0 0 0 0 0 0 0 0 0 0 0 0 0 0 0 0 0 0
Wind_Speed
5 5 3 4 5 6 6 8 8 8 8 9 8 7 5 4 4 4 4 4 4 3 3 3 4 4 4 4 4 4 4 5 6 6 6 6 7 7 7 7 8 8 8 8
3 2 2 4 5 4 5 5 5 3 7 6 2 3 4 5 6 6 6 6 5 5 4 4 4 4 4 5 5 4 5 6 6 6 7 7 7 8 8 8 8 8 8 8
3 4 2 5 5 5 4 4 7 7 8 3 4 6 7 7 7 7 7 6 6 5 5 5 5 4 5 5 4 4 5 6 7 7 7 8 8 8 8 8 8 8 8 8
2 2 3 8 3 4 3 4 5 5 4 5 6 4 3 6 8 8 7 6 6 5 5 4 4 4 4 4 4 5 6 7 7 7 8 8 8 8 8 7 7 8 8 9
4 2 5 7 3 5 4 4 5 6 4 3 4 3 3 6 7 8 7 6 6 5 4 4 5 4 4 4 5 5 7 7 7 7 8 8 9 9 8 7 8 8 8 8
4 3 5 9 3 4 4 5 6 7 7 6 7 2 7 6 7 7 6 5 5 4 3 4 5 3 3 5 5 7 7 7 7 7 7 8 9 8 7 7 8 8 8 8
4 4 9 7 3 6 3 10 6 9 9 10 10 9 5 4 6 7 6 6 5 4 4 5 4 3 4 5 7 7 7 7 7 7 7 8 7 6 7 7 8 7 8 8
4 3 9 4 7 9 11 4 5 9 9 11 10 5 3 5 7 7 6 5 5 5 5 5 4 4 5 7 7 6 6 7 7 7 7 6 7 7 7 6 7 7 7 8
8 8 6 4 8 6 4 5 6 9 9 11 8 7 7 7 7 7 7 7 5 5 6 5 4 5 6 7 5 5 6 6 7 8 7 6 6 7 7 6 5 6 6 6
4 8 6 6 6 5 7 7 7 8 9 11 10 9 9 7 7 7 7 6 5 5 5 6 5 5 7 6 5 5 6 7 6 7 8 7 5 5 5 6 6 6 6 6
5 8 8 7 5 5 5 4 4 5 8 11 11 10 10 9 9 8 7 5 5 6 6 7 5 5 6 5 4 4 6 6 6 6 6 7 7 6 6 6 6 7 7 6
6 7 4 8 6 2 4 6 7 7 7 7 10 11 10 9 8 7 7 5 5 6 7 7 5 6 5 4 4 4 5 6 5 5 5 6 7 8 8 9 10 10 11 9
7 6 5 7 5 3 4 5 5 7 8 7 7 7 8 7 6 6 6 7 8 8 7 6 5 6 5 4 4 4 5 6 5 5 6 6 6 7 8 9 8 8 8 9
6 4 3 4 4 3 2 2 3 3 3 4 5 5 5 5 4 6 8 8 7 6 6 6 6 6 5 4 4 5 5 6 6 5 5 6 6 6 6 7 8 7 7 8
8 2 2 3 5 5 4 4 3 1 1 1 2 4 6 6 7 8 7 5 4 5 6 6 6 6 4 3 4 5 5 4 5 5 5 5 6 6 6 6 6 6 6 6
7 7 7 8 8 6 6 5 3 2 2 1 1 2 4 5 5 4 4 5 6 8 8 6 7 5 3 3 4 4 4 8 7 5 5 6 5 6 6 6 6 6 6 6
9 11 10 9 8 7 5 4 3 3 2 1 2 2 3 3 3 5 6 6 7 7 6 6 6 4 4 4 4 3 4 5 8 6 5 5 5 6 6 6 6 6 6 6
6 6 6 6 7 7 7 7 7 6 4 3 2 1 3 4 6 7 6 4 4 5 6 6 6 4 4 4 3 3 3 4 4 5 5 5 6 6 5 6 6 7 6 6
9 9 9 9 9 7 7 7 6 5 4 3 2 3 5 6 6 6 4 4 6 8 7 6 7 6 4 4 4 3 3 4 5 5 5 6 6 5 5 5 6 6 6 5
9 9 9 9 9 8 8 7 7 6 6 4 4 4 5 6 6 5 5 6 8 6 4 4 5 5 4 4 3 2 3 4 5 5 5 5 5 6 6 6 6 6 5 5
8 8 9 9 8 7 6 6 6 6 6 4 4 6 7 7 5 4 4 7 7 5 5 6 5 4 4 3 3 2 3 4 4 4 4 5 5 5 5 6 6 5 5 5
6 6 8 8 7 8 7 6 5 6 6 6 6 5 6 6 5 5 6 7 6 5 4 4 4 5 5 4 2 2 3 3 3 3 4 4 4 5 5 6 6 5 5 5
5 5 6 6 6 7 7 6 6 6 6 6 7 6 6 6 4 4 7 5 4 6 5 4 6 7 6 3 2 2 3 3 3 3 4 4 4 4 5 6 5 5 5 5
5 5 5 5 4 4 6 7 7 5 6 6 6 6 5 5 5 5 5 6 6 6 5 5 7 7 6 3 2 2 2 3 3 3 4 4 4 4 4 5 5 5 5 5
5 5 4 4 4 4 5 6 7 6 7 6 8 7 5 3 5 6 5 5 5 5 3 5 7 6 4 2 2 2 2 2 3 3 3 4 4 4 4 4 4 5 4 4
4 4 4 4 4 4 3 3 4 5 5 6 7 7 6 5 5 5 4 3 2 3 3 3 4 4 3 2 1 1 1 1 2 3 3 3 4 4 4 4 6 4 4 4
5 4 3 4 4 3 3 3 3 4 5 5 7 7 7 6 5 4 4 3 2 2 2 2 3 3 2 2 1 1 0 1 2 2 3 3 3 3 4 5 4 4 4 4
Wind_Direction
234 246 225 238 234 186 190 191 188 226 226 243 226 214 203 173 162 168 193 214 221 230 248 264 274 280 280 284 292 297 300 297 290 289 290 290 289 290 290 288 287 282 283 281
287 287 256 253 250 216 206 194 211 240 255 249 194 144 161 173 177 196 216 226 234 240 248 254 261 271 282 283 289 295 293 290 290 294 296 294 292 291 292 291 289 287 283 281
259 306 7 278 246 208 207 200 180 208 237 180 169 190 196 194 194 207 220 228 234 239 241 248 255 260 267 274 288 292 288 290 292 293 294 293 295 296 294 292 289 289 285 281
158 55 247 250 260 200 194 227 209 226 232 194 198 198 203 191 193 212 221 227 233 235 240 248 250 257 264 276 284 287 288 290 292 293 294 296 296 294 292 289 288 287 285 284
129 180 278 289 234 166 164 260 215 206 202 151 107 69 303 220 201 208 213 216 221 223 225 239 254 258 267 281 286 288 288 290 292 294 296 299 298 296 295 293 294 290 286 285
132 164 235 252 235 156 108 282 229 184 179 157 125 144 255 222 197 210 215 213 217 220 223 244 255 250 257 275 284 283 283 288 292 293 292 293 293 292 291 290 289 292 290 284
156 202 257 252 163 128 165 244 211 182 179 167 180 200 223 188 187 198 206 213 211 210 226 242 250 236 254 271 273 274 284 291 294 293 291 287 287 286 292 294 295 294 293 292
146 182 258 221 146 182 214 221 179 184 183 185 205 213 209 194 196 198 206 214 207 213 238 249 241 226 253 265 268 281 289 293 295 296 296 297 294 295 294 295 298 299 298 300
188 214 238 214 212 229 188 195 196 189 193 188 195 209 207 205 205 207 210 214 210 213 239 255 241 220 244 260 274 287 293 294 297 301 299 294 291 296 301 300 297 298 298 297
256 272 267 255 246 238 209 212 208 190 181 176 192 203 204 205 206 211 216 216 210 211 233 251 248 235 239 260 273 280 289 294 298 303 306 306 299 292 292 296 297 298 297 295
274 284 310 306 264 240 223 213 199 189 185 187 191 200 200 202 206 210 214 213 205 212 229 245 252 253 254 256 262 277 286 291 297 298 300 305 304 293 286 276 265 274 285 284
243 250 232 268 282 260 217 218 202 188 196 199 195 201 198 203 206 204 208 205 210 220 231 243 248 255 259 252 248 267 286 294 296 301 303 305 309 311 291 274 280 273 262 262
254 271 244 268 292 275 233 228 205 195 199 205 208 200 194 200 203 200 206 209 215 221 229 237 243 254 259 252 250 258 272 286 292 296 302 307 309 310 313 316 309 299 292 288
283 282 300 308 295 295 266 235 184 188 198 191 185 177 181 193 195 202 215 219 217 221 229 233 241 254 256 245 252 267 275 284 291 289 295 298 300 300 299 304 312 316 313 306
345 353 272 319 355 14 24 42 52 353 263 231 175 174 182 191 204 216 221 214 211 225 232 231 240 254 251 237 251 270 280 285 289 290 291 293 296 299 300 300 300 302 309 313
339 12 19 22 15 15 28 34 16 310 297 272 241 229 220 213 217 224 218 197 203 226 230 228 238 246 236 233 254 270 279 293 301 296 299 302 303 304 306 306 306 305 309 311
28 17 7 7 4 5 9 9 359 343 346 310 250 230 222 220 231 239 235 222 223 236 235 226 235 237 223 229 242 261 281 297 305 304 297 299 301 302 303 303 303 302 301 300
36 28 22 15 7 4 3 6 9 5 347 314 302 233 219 222 235 245 247 238 233 249 245 230 226 220 223 231 235 249 270 284 291 294 297 300 302 300 299 300 302 303 305 311
26 24 22 23 19 19 13 4 354 345 339 328 287 255 248 245 244 246 240 230 232 248 251 228 214 208 219 233 240 244 266 282 290 293 296 301 305 305 305 306 307 307 307 312
23 19 16 12 10 12 8 357 349 345 338 328 310 294 279 267 254 241 229 233 234 233 230 211 200 203 214 230 242 246 265 279 289 297 302 305 308 309 312 313 314 313 315 314
7 5 4 1 353 352 350 345 344 336 324 317 298 283 278 280 271 244 239 259 259 228 213 204 195 198 203 214 235 243 262 276 286 294 299 302 306 309 314 318 318 318 318 319
349 350 347 344 342 335 332 332 333 327 325 322 310 302 303 300 291 271 248 249 263 217 201 198 193 195 198 203 209 239 262 275 285 293 297 299 303 309 314 318 320 322 321 322
328 328 329 329 325 316 321 330 333 328 323 318 315 309 298 289 281 273 282 271 253 218 205 204 196 193 193 188 198 232 260 276 290 300 304 302 302 305 309 315 319 321 322 327
315 316 315 314 325 339 336 324 323 320 315 310 306 302 298 301 299 278 270 273 248 217 208 202 194 190 181 183 197 229 259 277 292 303 308 309 309 312 313 319 321 323 327 333
301 305 313 328 336 321 309 314 323 327 329 326 320 316 305 278 276 294 296 282 256 217 204 191 185 180 179 191 201 224 252 280 301 307 309 313 317 321 325 328 332 331 332 337
290 289 284 278 273 278 292 308 315 315 320 322 320 318 317 312 306 309 308 294 253 204 193 175 170 171 179 188 197 216 256 300 311 314 317 320 324 329 334 339 346 344 340 344
288 286 289 298 297 289 289 291 295 301 304 307 308 308 309 308 310 316 314 299 255 205 188 174 167 162 156 159 167 171 293 316 319 320 322 326 331 335 338 342 346 348 346 352